Regional Weather Roundup
Issued by NWS

Home | Current Version | Previous Version | Text Only | Print | Product List | Glossary On
Versions: 1 2 3 4 5 6 7 8 9 10 11 12 13 14 15 16 17 18 19 20 21 22 23 24 25 26 27 28 29 30 31 32 33 34 35 36 37 38 39 40 41 42 43 44 45 46 47 48 49 50
000
ASUS45 KREV 240610
RWRNV
NEVADA REGIONAL WEATHER ROUNDUP
NATIONAL WEATHER SERVICE RENO NV
1100 PM PDT MON MAY 23 2016

NOTE: "FAIR" INDICATES FEW OR NO CLOUDS BELOW 12,000 FEET WITH NO
SIGNIFICANT WEATHER AND/OR OBSTRUCTIONS TO VISIBILITY.

NVZ001-003-004-240700-
WESTERN NEVADA

CITY           SKY/WX    TMP DP  RH WIND       PRES   REMARKS
RENO           MOCLDY    51  40  65 S5        29.91R
6HR MIN TEMP:  51; 6HR MAX TEMP:  63; 6HR PCP:  0.02;

CARSON CITY    CLOUDY    46  39  76 S3        29.93F
MINDEN         CLOUDY    45  41  87 CALM      29.93F
SLIDE MTN        N/A     32  32 100 CALM        N/A
PYRAMID LAKE     N/A     57 N/A N/A N2          N/A
FALLON         CLOUDY    54  37  52 SW15      29.85R
6HR MIN TEMP:  54; 6HR MAX TEMP:  66;

LOVELOCK       PTCLDY    56  25  30 E6        29.82S
6HR MIN TEMP:  53; 6HR MAX TEMP:  68;

HAWTHORNE      CLOUDY    52  43  71 SE6       29.89R
$$

NVZ002-CAZ072-073-240700-
NORTHERN AND CENTRAL SIERRA

CITY           SKY/WX    TMP DP  RH WIND       PRES   REMARKS
S. LAKE TAHOE  CLOUDY    41  33  73 S5        29.93F
6HR MIN TEMP:  41; 6HR MAX TEMP:  46; 6HR PCP: TRACE;

TRUCKEE        CLOUDY    39  37  93 CALM      29.94F
SQUAW VLY 8000 NOT AVBL
SUSANVILLE     MOCLDY    48  39  71 W9        29.91F
BLUE CANYON    CLOUDY    43  37  79 CALM      29.95S
MAMMOTH LAKES  FAIR      40  29  64 CALM      29.93R
6HR MIN TEMP:  40; 6HR MAX TEMP:  54;

BRIDGEPORT     LGT RAIN  38  33  82 VRB3      29.92F
$$

NVZ030-031-036-240700-
NORTHERN NEVADA

CITY           SKY/WX    TMP DP  RH WIND       PRES   REMARKS
ELKO           LGT RAIN  51  41  68 NE8       29.86F
6HR MIN TEMP:  49; 6HR MAX TEMP:  58; 6HR PCP:  0.01;

WINNEMUCCA     PTCLDY    49  27  42 NW10      29.83S
6HR MIN TEMP:  44; 6HR MAX TEMP:  64;

WENDOVER       MOCLDY    59  34  38 N6        29.84S
$$

NVZ035-037-240700-
CENTRAL NEVADA

CITY           SKY/WX    TMP DP  RH WIND       PRES   REMARKS
ELY            CLOUDY    50  32  50 NW9       29.86S
6HR MIN TEMP:  46; 6HR MAX TEMP:  61;

EUREKA           N/A     46  38  73 SE3       29.88S
6HR MIN TEMP:  45; 6HR MAX TEMP:  61;

$$

NVZ013-014-240700-
SOUTH CENTRAL NEVADA

CITY           SKY/WX    TMP DP  RH WIND       PRES   REMARKS
TONOPAH        PTCLDY    52  29  41 NW22G29   29.86R
6HR MIN TEMP:  52; 6HR MAX TEMP:  68;

$$

NVZ017-020-022-240700-
SOUTHERN NEVADA

CITY           SKY/WX    TMP DP  RH WIND       PRES   REMARKS
LAS VEGAS      CLEAR     73  30  20 SW13G20   29.68S
6HR MIN TEMP:  73; 6HR MAX TEMP:  82;

N. LAS VEGAS   CLEAR     73  31  21 W8        29.71R
6HR MIN TEMP:  73; 6HR MAX TEMP:  82;

NELLIS AFB     CLEAR     73  29  20 S12       29.70R
6HR MIN TEMP:  72; 6HR MAX TEMP:  84;

HENDERSON      CLEAR     70  33  25 SW13      29.75S
6HR MIN TEMP:  68; 6HR MAX TEMP:  82;

MERCURY        CLEAR     65  32  29 S14G25    29.74S
6HR MIN TEMP:  65; 6HR MAX TEMP:  76;

$$



USA.gov is the U.S. government's official web portal to all federal, state and local government web resources and services.